Terminal Aerodrome Forecast
Issued by NWS Cleveland, OH

Home | Current Version | Previous Version | Graphics & Text | Print | Product List | Glossary On
Versions: 1 2 3 4 5 6 7 8 9 10 11 12 13 14 15 16 17 18
000
FTUS41 KCLE 231004 AAA
TAFERI
TAF AMD
KERI 231004Z 2310/2406 19014G20KT P6SM SCT018 BKN045
      TEMPO 2310/2314 5SM BR BKN018
     FM231400 20014G20KT 6SM HZ BKN025
     FM232200 32008KT 5SM BR VCSH OVC022
     FM240200 06006KT 4SM -RA BR OVC012=

USA.gov is the U.S. government's official web portal to all federal, state and local government web resources and services.